• en Belgique
  • Liste des pays
  • À 7 jours
  • Température de l'eau
  • Carte satellitaire
  • Carte météo
  • Widgets météo
  • user-avatar
    Se connecter

    Météo par heure à Knokke-Heist

    Ce jour, 22 Février, Jeudi

    Heure Température Précipitation Vent Pression Humidité
    00:00 -3°C° 0 mm 6 m/s 767 mmHg 74%
    01:00 -4°C° 0 mm 6 m/s 767 mmHg 75%
    02:00 -4°C° 0 mm 6 m/s 767 mmHg 75%
    03:00 -4°C° 0 mm 6 m/s 767 mmHg 76%
    04:00 -4°C° 0 mm 6 m/s 767 mmHg 76%
    05:00 -4°C° 0 mm 6 m/s 767 mmHg 76%
    06:00 -4°C° 0 mm 6 m/s 767 mmHg 75%
    07:00 -3°C° 0 mm 6 m/s 767 mmHg 70%
    08:00 -3°C° 0 mm 6 m/s 767 mmHg 65%
    09:00 -2°C° 0 mm 7 m/s 767 mmHg 60%
    10:00 -1°C° 0 mm 7 m/s 767 mmHg 55%
    11:00 0°C° 0 mm 7 m/s 767 mmHg 49%
    12:00 +2°C° 0 mm 7 m/s 767 mmHg 44%
    13:00 +3°C° 0 mm 7 m/s 767 mmHg 44%
    14:00 +3°C° 0 mm 7 m/s 766 mmHg 45%
    15:00 +3°C° 0 mm 7 m/s 766 mmHg 45%
    16:00 +2°C° 0 mm 7 m/s 766 mmHg 50%
    17:00 0°C° 0 mm 7 m/s 766 mmHg 54%
    18:00 -1°C° 0 mm 7 m/s 766 mmHg 59%
    19:00 -2°C° 0 mm 7 m/s 766 mmHg 61%
    20:00 -2°C° 0 mm 7 m/s 767 mmHg 63%
    21:00 -3°C° 0 mm 7 m/s 767 mmHg 64%
    22:00 -3°C° 0 mm 7 m/s 767 mmHg 65%
    23:00 -3°C° 0 mm 7 m/s 767 mmHg 66%

    Demain, 23 Février, Vendredi

    Heure Température Précipitation Vent Pression Humidité
    00:00 -4°C° 0 mm 7 m/s 767 mmHg 67%
    01:00 -4°C° 0 mm 7 m/s 766 mmHg 67%
    02:00 -4°C° 0 mm 7 m/s 766 mmHg 67%
    03:00 -4°C° 0 mm 7 m/s 766 mmHg 67%
    04:00 -4°C° 0 mm 7 m/s 766 mmHg 67%
    05:00 -4°C° 0 mm 7 m/s 766 mmHg 66%
    06:00 -4°C° 0 mm 7 m/s 766 mmHg 65%
    07:00 -4°C° 0 mm 7 m/s 766 mmHg 60%
    08:00 -4°C° 0 mm 8 m/s 766 mmHg 54%
    09:00 -2°C° 0 mm 8 m/s 766 mmHg 48%
    10:00 -1°C° 0 mm 8 m/s 766 mmHg 45%
    11:00 -1°C° 0 mm 8 m/s 765 mmHg 41%
    12:00 0°C° 0 mm 8 m/s 765 mmHg 38%
    13:00 0°C° 0 mm 8 m/s 765 mmHg 38%
    14:00 +1°C° 0 mm 8 m/s 764 mmHg 38%
    15:00 +1°C° 0 mm 8 m/s 764 mmHg 39%
    16:00 0°C° 0 mm 8 m/s 764 mmHg 40%
    17:00 -2°C° 0 mm 8 m/s 764 mmHg 42%
    18:00 -4°C° 0 mm 8 m/s 764 mmHg 44%
    19:00 -4°C° 0 mm 8 m/s 764 mmHg 43%
    20:00 -4°C° 0 mm 8 m/s 764 mmHg 42%
    21:00 -5°C° 0 mm 8 m/s 765 mmHg 41%
    22:00 -5°C° 0 mm 8 m/s 764 mmHg 41%
    23:00 -5°C° 0 mm 8 m/s 764 mmHg 41%

    Après-demain, 24 Février, Samedi

    Heure Température Précipitation Vent Pression Humidité
    00:00 -5°C° 0 mm 8 m/s 764 mmHg 42%
    01:00 -5°C° 0 mm 8 m/s 764 mmHg 42%
    02:00 -6°C° 0 mm 8 m/s 764 mmHg 43%
    03:00 -6°C° 0 mm 8 m/s 764 mmHg 44%
    04:00 -6°C° 0 mm 8 m/s 764 mmHg 44%
    05:00 -6°C° 0 mm 8 m/s 764 mmHg 44%
    06:00 -6°C° 0 mm 8 m/s 764 mmHg 44%
    07:00 -5°C° 0 mm 9 m/s 764 mmHg 41%
    08:00 -4°C° 0 mm 9 m/s 765 mmHg 39%
    09:00 -4°C° 0 mm 9 m/s 765 mmHg 36%
    10:00 -1°C° 0 mm 9 m/s 765 mmHg 35%
    11:00 0°C° 0 mm 9 m/s 765 mmHg 34%
    12:00 +1°C° 0 mm 9 m/s 764 mmHg 33%
    13:00 +1°C° 0 mm 9 m/s 764 mmHg 32%
    14:00 +2°C° 0 mm 9 m/s 764 mmHg 32%
    15:00 +2°C° 0 mm 9 m/s 764 mmHg 31%
    16:00 +1°C° 0 mm 9 m/s 765 mmHg 33%
    17:00 0°C° 0 mm 9 m/s 765 mmHg 35%
    18:00 -3°C° 0 mm 9 m/s 765 mmHg 37%
    19:00 -3°C° 0 mm 9 m/s 766 mmHg 41%
    20:00 -3°C° 0 mm 10 m/s 766 mmHg 44%
    21:00 -4°C° 0 mm 10 m/s 767 mmHg 48%
    22:00 -4°C° 0 mm 10 m/s 767 mmHg 49%
    23:00 -4°C° 0 mm 9 m/s 768 mmHg 51%

    25 Février, Dimanche

    Heure Température Précipitation Vent Pression Humidité
    00:00 -5°C° 0 mm 9 m/s 768 mmHg 53%
    01:00 -5°C° 0 mm 9 m/s 768 mmHg 51%
    02:00 -5°C° 0 mm 9 m/s 768 mmHg 49%
    03:00 -6°C° 0 mm 9 m/s 768 mmHg 47%
    04:00 -6°C° 0 mm 9 m/s 769 mmHg 46%
    05:00 -7°C° 0 mm 10 m/s 769 mmHg 45%
    06:00 -7°C° 0 mm 10 m/s 769 mmHg 44%
    07:00 -7°C° 0 mm 10 m/s 769 mmHg 40%
    08:00 -5°C° 0 mm 10 m/s 770 mmHg 37%
    09:00 -5°C° 0 mm 10 m/s 770 mmHg 34%
    10:00 -4°C° 0 mm 10 m/s 770 mmHg 31%
    11:00 -3°C° 0 mm 9 m/s 770 mmHg 28%
    12:00 -1°C° 0 mm 9 m/s 770 mmHg 25%
    13:00 -1°C° 0 mm 9 m/s 770 mmHg 25%
    14:00 -1°C° 0 mm 9 m/s 770 mmHg 26%
    15:00 -1°C° 0 mm 9 m/s 770 mmHg 27%
    16:00 -3°C° 0 mm 9 m/s 771 mmHg 29%
    17:00 -4°C° 0 mm 9 m/s 771 mmHg 31%
    18:00 -5°C° 0 mm 9 m/s 771 mmHg 33%
    19:00 -6°C° 0 mm 9 m/s 772 mmHg 33%
    20:00 -6°C° 0 mm 9 m/s 772 mmHg 34%
    21:00 -6°C° 0 mm 9 m/s 773 mmHg 35%
    22:00 -7°C° 0 mm 8 m/s 773 mmHg 35%
    23:00 -7°C° 0 mm 8 m/s 773 mmHg 36%

    26 Février, Lundi

    Heure Température Précipitation Vent Pression Humidité
    00:00 -7°C° 0 mm 7 m/s 773 mmHg 36%
    01:00 -7°C° 0 mm 7 m/s 773 mmHg 37%
    02:00 -7°C° 0 mm 7 m/s 773 mmHg 38%
    03:00 -7°C° 0 mm 7 m/s 773 mmHg 38%
    04:00 -7°C° 0 mm 7 m/s 773 mmHg 39%
    05:00 -7°C° 0 mm 7 m/s 773 mmHg 40%
    06:00 -7°C° 0 mm 7 m/s 773 mmHg 42%
    07:00 -7°C° 0 mm 7 m/s 773 mmHg 42%
    08:00 -6°C° 0 mm 7 m/s 773 mmHg 42%
    09:00 -6°C° 0 mm 7 m/s 773 mmHg 43%
    10:00 -4°C° 0 mm 7 m/s 772 mmHg 41%
    11:00 -3°C° 0 mm 7 m/s 772 mmHg 40%
    12:00 -3°C° 0 mm 6 m/s 772 mmHg 39%
    13:00 -2°C° 0 mm 7 m/s 771 mmHg 39%
    14:00 -2°C° 0 mm 7 m/s 771 mmHg 39%
    15:00 -2°C° 0 mm 7 m/s 771 mmHg 39%
    16:00 -3°C° 0 mm 7 m/s 770 mmHg 41%
    17:00 -4°C° 0 mm 7 m/s 770 mmHg 44%
    18:00 -6°C° 0 mm 7 m/s 770 mmHg 47%
    19:00 -5°C° 0 mm 6 m/s 770 mmHg 48%
    20:00 -5°C° 0 mm 6 m/s 770 mmHg 49%
    21:00 -6°C° 0 mm 6 m/s 770 mmHg 50%
    22:00 -6°C° 0 mm 6 m/s 770 mmHg 51%
    23:00 -6°C° 0 mm 6 m/s 769 mmHg 52%

    27 Février, Mardi

    Heure Température Précipitation Vent Pression Humidité
    00:00 -6°C° 0 mm 6 m/s 769 mmHg 54%
    01:00 -6°C° 0 mm 6 m/s 769 mmHg 56%
    02:00 -6°C° 0 mm 5 m/s 769 mmHg 57%
    03:00 -6°C° 0 mm 5 m/s 768 mmHg 59%
    04:00 -7°C° 0 mm 5 m/s 768 mmHg 60%
    05:00 -8°C° 0 mm 6 m/s 768 mmHg 61%
    06:00 -8°C° 0 mm 6 m/s 768 mmHg 62%
    07:00 -6°C° 0 mm 6 m/s 768 mmHg 58%
    08:00 -6°C° 0 mm 6 m/s 768 mmHg 55%
    09:00 -5°C° 0 mm 6 m/s 767 mmHg 52%
    10:00 -5°C° 0 mm 6 m/s 767 mmHg 47%
    11:00 -4°C° 0 mm 5 m/s 767 mmHg 43%
    12:00 -2°C° 0 mm 5 m/s 767 mmHg 39%
    13:00 -2°C° 0 mm 5 m/s 766 mmHg 37%
    14:00 -2°C° 0 mm 5 m/s 766 mmHg 36%
    15:00 -2°C° 0 mm 5 m/s 765 mmHg 35%
    16:00 -4°C° 0 mm 5 m/s 765 mmHg 38%
    17:00 -4°C° 0 mm 4 m/s 765 mmHg 40%
    18:00 -5°C° 0 mm 4 m/s 765 mmHg 43%
    19:00 -5°C° 0 mm 3 m/s 765 mmHg 42%
    20:00 -5°C° 0 mm 3 m/s 765 mmHg 42%
    21:00 -5°C° 0 mm 3 m/s 765 mmHg 42%
    22:00 -4°C° 0 mm 2 m/s 765 mmHg 42%
    23:00 -4°C° 0 mm 2 m/s 764 mmHg 41%
    Voir plus